Vertical_Velocity
3 7 11 8 17 15 10 5 4 4 -0 -1 1 1 1 0 0 3 1 2 -1 -1 1 -3 2 11 6 -7 7 8 -17 -4
5 1 -5 -0 1 8 5 4 1 1 2 3 3 3 2 2 -2 0 2 1 1 0 3 1 -3 3 9 19 12 10 -8 19
8 14 -3 1 1 -0 7 3 -1 0 2 2 -2 -8 1 1 -1 -2 -3 -0 2 1 -2 -2 -0 -3 -1 -2 -0 -0 6 5
3 -0 6 -2 8 4 8 6 4 2 2 -4 -3 -5 -3 2 5 1 -1 -3 -1 1 1 0 1 3 -4 -1 -0 2 -4 1
3 8 3 -0 -7 18 0 3 6 3 -5 -1 -9 0 -7 -5 -6 -3 -1 -1 -2 -1 2 2 -2 1 1 -0 2 -1 3 4
6 4 5 4 -9 -9 13 4 3 -1 5 -3 -3 0 -3 -1 -5 -3 -2 -3 -1 -1 -2 0 2 3 4 -0 -0 0 -2 5
5 11 8 1 -13 16 -9 3 6 1 -2 -5 4 -1 -4 -2 -3 -0 -2 -2 -6 -2 -2 -2 -0 -2 1 2 1 1 2 -1
-3 0 -3 -3 0 -6 7 -4 -5 1 -1 -4 0 -3 -3 -3 -0 -3 -4 -0 -4 -3 -5 -3 -2 -0 -1 0 -1 2 3 2
2 -7 -6 -4 -1 -8 11 2 5 1 1 -4 -6 -2 -2 1 1 1 -6 2 -3 0 2 1 -5 2 -2 0 -1 -0 -1 5
0 -4 -4 11 17 6 -1 0 8 4 -6 -3 -1 -0 -3 -6 -6 -5 -5 -1 2 2 1 -2 3 -3 -0 -0 2 -1 -1 -1
-4 -5 -5 -2 -0 -0 -0 -6 1 -5 -1 -6 -6 -4 2 5 1 1 -6 -2 -3 -0 4 -3 -1 -3 -1 -0 3 -1 3 1
-2 -7 -7 5 -4 -3 0 -1 -3 5 -1 2 2 4 -2 -0 0 3 -0 -1 2 -1 -6 -1 -3 1 -4 -2 3 -1 4 -0
0 1 -5 -4 7 5 -1 3 -2 -5 -2 3 -2 -4 -1 1 -1 4 -3 -2 2 -1 -2 -2 1 -1 -1 -2 -3 2 10 2
-0 1 4 8 12 7 1 1 -2 3 1 -1 2 -2 1 -1 -2 4 -1 -4 -1 -3 0 0 0 -1 -5 -1 -0 4 5 1
2 -3 0 -1 -3 -4 -6 -6 -1 2 1 -1 -0 -3 4 3 0 -1 2 -3 -3 0 -1 -1 -1 -2 -2 -1 -0 0 5 2
-3 -1 -1 -6 -3 1 2 5 6 4 -2 -5 -2 3 -0 -4 -1 -0 1 -0 -1 -2 -1 -1 -1 -2 -3 -3 2 2 0 0
-3 -1 -3 -0 -2 -2 1 2 -1 1 0 0 5 5 2 -2 4 2 1 4 1 3 -3 -3 -1 1 4 1 3 -1 1 5
0 -2 -1 0 1 1 1 0 3 2 -3 -5 -3 -3 -2 0 -1 -1 -2 -1 1 -2 -3 -6 -2 4 1 1 -2 1 0 -1
-1 2 3 1 0 2 4 4 0 -2 -1 0 2 6 -2 0 1 -4 -4 -3 -2 -0 1 0 3 -0 0 -1 -2 5 3 -0
Height
1446 1444 1447 1452 1449 1446 1444 1445 1448 1449 1451 1454 1455 1456 1456 1456 1457 1458 1458 1458 1458 1459 1459 1457 1457 1459 1461 1459 1472 1469 1464 1474
1445 1445 1448 1450 1452 1449 1444 1443 1445 1447 1449 1449 1450 1451 1452 1452 1452 1452 1451 1452 1452 1453 1453 1453 1453 1452 1454 1458 1458 1459 1460 1455
1449 1449 1447 1454 1452 1448 1445 1441 1442 1443 1442 1443 1445 1447 1447 1445 1446 1446 1445 1445 1445 1445 1445 1447 1447 1447 1446 1447 1449 1451 1453 1458
1451 1451 1448 1453 1453 1449 1445 1441 1439 1438 1438 1440 1443 1444 1445 1443 1441 1441 1441 1440 1438 1437 1437 1438 1439 1439 1440 1442 1445 1446 1447 1448
1458 1454 1452 1449 1455 1449 1446 1441 1438 1436 1438 1438 1439 1438 1440 1438 1436 1435 1434 1434 1433 1431 1430 1429 1429 1429 1431 1434 1437 1439 1442 1441
1465 1461 1459 1453 1449 1456 1446 1442 1437 1437 1437 1435 1437 1436 1434 1433 1431 1430 1429 1428 1427 1425 1423 1422 1421 1420 1421 1423 1427 1429 1431 1434
1469 1466 1462 1458 1457 1456 1448 1445 1438 1438 1435 1435 1434 1432 1431 1430 1427 1425 1423 1421 1420 1419 1417 1416 1415 1413 1413 1412 1414 1417 1420 1422
1470 1468 1466 1464 1462 1451 1449 1441 1441 1436 1432 1434 1432 1431 1429 1427 1423 1421 1418 1415 1414 1414 1412 1410 1409 1409 1407 1405 1405 1405 1408 1411
1471 1472 1474 1471 1466 1461 1452 1446 1442 1438 1435 1434 1431 1430 1428 1426 1420 1417 1416 1412 1410 1409 1405 1404 1403 1402 1400 1398 1396 1395 1398 1401
1474 1469 1473 1471 1464 1457 1449 1448 1444 1435 1435 1433 1431 1428 1425 1421 1419 1416 1414 1410 1407 1403 1400 1397 1395 1394 1393 1391 1388 1386 1387 1391
1474 1473 1471 1471 1464 1461 1452 1451 1442 1439 1436 1434 1430 1429 1425 1420 1416 1412 1408 1406 1403 1398 1394 1391 1391 1388 1385 1383 1380 1378 1378 1382
1472 1472 1473 1470 1466 1461 1454 1448 1444 1441 1438 1434 1430 1424 1420 1417 1413 1408 1404 1400 1397 1392 1389 1387 1384 1380 1378 1376 1372 1371 1370 1372
1475 1472 1473 1472 1469 1458 1454 1450 1447 1444 1439 1434 1428 1424 1421 1416 1412 1406 1401 1398 1393 1388 1386 1384 1378 1374 1371 1369 1366 1365 1363 1365
1477 1476 1476 1474 1466 1458 1455 1452 1451 1446 1439 1435 1430 1426 1422 1417 1413 1406 1400 1395 1391 1388 1384 1379 1373 1369 1366 1363 1360 1357 1357 1359
1476 1474 1470 1463 1459 1459 1457 1457 1455 1448 1440 1437 1433 1429 1424 1417 1413 1409 1402 1396 1395 1389 1383 1377 1372 1368 1364 1359 1354 1352 1351 1352
1477 1474 1472 1470 1471 1466 1463 1458 1454 1448 1441 1440 1437 1432 1426 1422 1418 1413 1408 1403 1396 1391 1385 1378 1373 1368 1363 1355 1351 1346 1345 1347
1480 1479 1478 1475 1470 1468 1464 1460 1455 1449 1446 1443 1441 1435 1429 1428 1420 1415 1411 1406 1399 1393 1387 1381 1375 1371 1364 1357 1349 1346 1344 1342
1481 1480 1478 1475 1473 1470 1466 1462 1458 1451 1448 1447 1443 1438 1435 1430 1424 1419 1413 1407 1402 1398 1392 1386 1380 1373 1367 1360 1354 1352 1347 1342
1480 1480 1478 1475 1475 1472 1468 1463 1458 1455 1453 1451 1446 1442 1438 1434 1429 1425 1419 1414 1406 1402 1397 1391 1384 1377 1373 1368 1363 1358 1352 1347